Weather History for Wooster, OH

Change the Weather History Date:

Sunday, August 18, 2013

  Actual Average Record
Temperature  
Mean Temperature 62 °F -  
Max Temperature 73 °F 76 °F 82 °F (2002)
Min Temperature 51 °F 56 °F 50 °F (2007)
Degree Days  
Heating Degree Days 3    
Growing Degree Days 12 (Base 50)    
Moisture  
Dew Point 59 °F    
Average Humidity 87    
Maximum Humidity 100    
Minimum Humidity 71    
Precipitation  
Precipitation 0.00 in - - ()
Sea Level Pressure  
Sea Level Pressure 30.19 in    
Wind  
Wind Speed 2 mph (SSE)    
Max Wind Speed 7 mph    
Max Gust Speed -    
Visibility 7 miles    
Events      
Averages and records for this station are not official NWS values.
T = Trace of Precipitation, MM = Missing Value Source: NWS Daily Summary

Daily Weather History Graph

Daily Weather History Graph

Search for Another Location

Airport:

Trip Planner

Search our weather history database for the weather conditions in past years. The results will help you decide how hot, cold, wet, or windy it might be!

Date:

Astronomy

Aug. 18, 2013 Rise Set
Actual Time 6:40 AM EDT 8:21 PM EDT
Civil Twilight 6:11 AM EDT 8:50 PM EDT
Nautical Twilight 5:36 AM EDT 9:25 PM EDT
Astronomical Twilight 4:58 AM EDT 10:03 PM EDT
Moon 6:26 PM EDT (8/18) 3:48 AM EDT (8/18)
Length of Visible Light 14h 38m
Length of Day
13h 40m
Waxing Gibbous, 92% of the Moon is Illuminated
Aug 18
Waxing Gibbous
Aug 20
Full
Aug 28
Last Quarter
Sep 5
New
Sep 12
First Quarter

Hourly Weather History & Observations

Time (EDT) Temp. Dew Point Humidity Pressure Visibility Wind Dir Wind Speed Gust Speed Precip Events Conditions
12:56 AM 54.0 °F 52.0 °F 93% 30.21 in 9.0 mi Calm Calm - N/A   Clear
1:56 AM 52.0 °F 51.1 °F 97% 30.21 in 6.0 mi Calm Calm - N/A   Clear
2:56 AM 51.1 °F 48.9 °F 92% 30.21 in 5.0 mi Calm Calm - N/A   Clear
3:56 AM 53.1 °F 52.0 °F 96% 30.20 in 5.0 mi Calm Calm - N/A   Clear
4:56 AM 52.0 °F 50.0 °F 93% 30.19 in 4.0 mi Calm Calm - N/A   Clear
5:56 AM 54.0 °F 52.0 °F 93% 30.19 in 5.0 mi Calm Calm - N/A   Clear
6:56 AM 54.0 °F 53.1 °F 97% 30.20 in 4.0 mi Calm Calm - N/A   Clear
7:56 AM 57.0 °F 55.0 °F 93% 30.22 in 4.0 mi Calm Calm - N/A   Partly Cloudy
8:56 AM 61.0 °F 57.0 °F 87% 30.23 in 5.0 mi East 3.5 mph - N/A   Mostly Cloudy
9:56 AM 63.0 °F 57.9 °F 84% 30.23 in 6.0 mi Calm Calm - N/A   Haze
10:56 AM 66.0 °F 59.0 °F 78% 30.23 in 7.0 mi Calm Calm - N/A   Overcast
11:56 AM 68.0 °F 60.1 °F 76% 30.22 in 9.0 mi ESE 3.5 mph - N/A   Overcast
12:56 PM 69.1 °F 61.0 °F 75% 30.22 in 9.0 mi Calm Calm - N/A   Overcast
1:56 PM 71.1 °F 62.1 °F 73% 30.21 in 10.0 mi SSW 4.6 mph - N/A   Overcast
2:56 PM 71.1 °F 64.0 °F 78% 30.20 in 10.0 mi SSW 6.9 mph - N/A   Overcast
3:56 PM 73.0 °F 64.0 °F 73% 30.18 in 10.0 mi South 6.9 mph - N/A   Mostly Cloudy
4:54 PM 71.6 °F 62.6 °F 73% 30.18 in 10.0 mi SSE 5.8 mph - N/A   Overcast
4:56 PM 71.1 °F 62.1 °F 73% 30.17 in 10.0 mi SSE 5.8 mph - N/A   Overcast
5:45 PM 71.6 °F 62.6 °F 73% 30.17 in 10.0 mi SSE 5.8 mph - N/A   Overcast
5:56 PM 73.0 °F 63.0 °F 71% 30.16 in 10.0 mi SE 6.9 mph - N/A   Mostly Cloudy
6:56 PM 71.1 °F 63.0 °F 75% 30.15 in 10.0 mi SSE 4.6 mph - N/A   Mostly Cloudy
7:16 PM 69.8 °F 62.6 °F 78% 30.16 in 10.0 mi South 5.8 mph - N/A   Mostly Cloudy
7:56 PM 68.0 °F 63.0 °F 84% 30.15 in 10.0 mi SSE 4.6 mph - N/A   Partly Cloudy
8:56 PM 64.9 °F 62.1 °F 90% 30.15 in 10.0 mi Calm Calm - 0.00 in   Clear
9:56 PM 64.0 °F 62.1 °F 93% 30.18 in 10.0 mi SW 3.5 mph - N/A   Partly Cloudy
10:13 PM 62.6 °F 60.8 °F 94% 30.18 in 10.0 mi Calm Calm - N/A   Mostly Cloudy
10:46 PM 62.6 °F 60.8 °F 94% 30.18 in 8.0 mi Calm Calm - N/A   Scattered Clouds
10:56 PM 61.0 °F 60.1 °F 97% 30.17 in 4.0 mi Calm Calm - N/A   Partly Cloudy
11:33 PM 60.8 °F 60.8 °F 100% 30.17 in 1.5 mi SSE 3.5 mph - N/A   Clear
11:37 PM 60.8 °F 60.8 °F 100% 30.17 in 0.8 mi Calm Calm - N/A   Clear
11:45 PM 60.8 °F 60.8 °F 100% 30.18 in 1.2 mi SE 3.5 mph - N/A   Clear
11:53 PM 60.8 °F 60.8 °F 100% 30.17 in 2.5 mi Calm Calm - N/A   Clear
11:56 PM 61.0 °F 60.1 °F 97% 30.17 in 1.8 mi Calm Calm - N/A   Clear